STARLINK-5958, 56921

Orbit data source: Space-Track

STARLINK-5958, 56921 is a payload satellite owned by SpaceX/Seattle (US) in LEO that was launched on Mon, 12 Jun 2023 UTC via an FALCON 9 launch vehicle from the Air Force Eastern Test Range (AFETR). Payload-class satellites include a variety of spacecraft equipped with specific instruments for various scientific and technological missions. These include communications satellites like Starlink; space stations such as the ISS; scientific satellites like the Hubble; Earth observation satellites from companies like Planet Labs, Umbra, and HawkEye 360; GPS; miniature CubeSats for education and research; and military/defense satellites.

Loading next visibility...
Identifier
56921, 2023-083AX
Orbit
LEO
Country
Flag of USUS
Related business
Manufacturer
SpaceX/Seattle
Mission
Operational Commercial Communications
Bus & Motor
STARLINK, Unknown motor
Mass
305 kg wet, ~290 kg dry
Launch date (UTC)
2023-06-12 (3 years ago)
Launch vehicle
FALCON 9
Launch site
Air Force Eastern Test Range (AFETR)
Object type
Payload
Rocket body
Debris
Shape & HBR
Box + 1 Pan, 10.1 m
Radar Cross Section
11.087 m², Large (>1 m²)

Expand to show TLE details & history
Last TLE update: 2 days ago

TLE from 2 days ago
0 STARLINK-5958
1 56921U 23083AX  26171.16384051  .00000250  00000-0  18629-4 0  9991
2 56921  43.0043 211.6652 0001791 278.6477  81.4171 15.27576937167470
Epoch: 2026-06-20T03:55Z
TLE epoch observation values (Epoch: 2026-06-20T03:55:55.820Z)
Latitude
-0.00005°
Longitude
-115.69984°
Altitude
482.651 km
Speed
7.626 km/s
True Right ascension
14h 06m 39s
True Declination
0° 00' 00"
Sunlit
Object was in full shadow at epoch
Visualization orbit readout
Latitude
Unknown
Longitude
Unknown
Altitude
Unknown
Speed
Unknown
Apparent Right ascension
Unknown
Apparent Declination
Unknown
Sunlit
N/A
Visualization observer readout
Local Sidereal Time
21:33:31
Azimuth
Unknown
Elevation
Unknown
Doppler factor
Unknown
Orbital elements
Apogee altitude
486.232 km
Perigee altitude
483.774 km
Semi-major axis
6,863.14 km
Eccentricity
0.00018
Inclination
43.0043°
RAAN
211.6652°
Arg. of periapsis
278.6477°
True anomaly
81.43739°
Mean anomaly
81.4171°
Eccentric anomaly
81.42725°
Mean motion
3.81732 °/min
Orbital period
94.31 mins
BSTAR
0.000018629
Loading maneuver chart data...
Computing Atmospheric mass density...
Loading historical data...
Loading historical data...
Loading historical data...
Loading historical data...
Loading historical data...
Loading historical data...
Loading historical data...

Documentation

Showing up to 5 results
|